Date String (YYYY-MM-DD hh:mm:ss) UTC,Instrument flags,Ambient pressure (hPa),Sample flow (lpm),Bypass flow (lpm),Sample temperature (°C),Ambient temperature (°C),ASC tube jacket temperature (°C),LED temperature (°C),Box temperature (°C),Sample RH (%),Span deviation,Mass concentration (μg/m³),Mass concentration (μg/m³),Mass concentration (μg/m³)
DateTimeUTC,F1_M11,P_M11,Q1_M11,Q2_M11,T1_M11,T2_M11,T3_M11,T4_M11,T5_M11,U1_M11,ZSPAN_M11,X2_M11,X0_M11,X1_M11
2021-09-07 02:00:00,,0827.9,5.01,0.00,28.9,25.3,00.0,38.0,30.2,12.9,0001.1,0016.95,0025.40,0015.86
2021-09-07 02:01:00,,0827.9,5.00,0.00,28.8,25.7,00.0,38.0,30.3,12.9,0000.7,0016.98,0025.34,0015.89
2021-09-07 02:02:00,,0827.9,5.01,0.00,28.8,26.2,00.0,37.9,30.4,12.9,0000.8,0016.96,0025.06,0015.90
2021-09-07 02:03:00,,0827.9,5.00,0.00,28.8,26.7,00.0,37.9,30.5,13.6,0001.5,0016.95,0025.14,0015.90
2021-09-07 02:04:00,,0828.0,4.99,0.00,28.8,27.1,00.0,37.9,30.6,13.8,0001.8,0017.00,0025.17,0015.92
2021-09-07 02:05:00,,0828.0,5.01,0.00,28.9,27.5,00.0,37.9,30.7,13.8,0001.9,0016.98,0025.00,0015.91
2021-09-07 02:06:00,,0828.0,5.00,0.00,29.0,27.7,00.0,37.9,30.8,13.3,0002.1,0017.04,0025.29,0015.91
2021-09-07 02:07:00,,0828.1,4.99,0.00,29.0,28.0,00.0,38.0,30.9,11.9,0001.7,0017.10,0025.34,0015.89
2021-09-07 02:08:00,,0828.1,4.99,0.00,29.1,28.2,00.0,38.0,31.0,12.0,0001.1,0017.15,0024.94,0015.91
2021-09-07 02:09:00,,0828.1,5.01,0.00,29.1,28.4,00.0,38.0,31.1,12.3,0001.3,0017.12,0025.40,0015.92
2021-09-07 02:10:00,,0828.1,5.00,0.00,29.2,28.5,00.0,38.1,31.1,12.3,0001.3,0017.08,0025.72,0015.91
2021-09-07 02:11:00,,0828.2,5.00,0.00,29.3,28.5,00.0,38.1,31.2,11.5,0001.8,0017.08,0025.40,0015.91
2021-09-07 02:12:00,,0828.2,4.99,0.00,29.2,27.0,00.0,38.1,30.8,11.9,0002.3,0017.07,0025.13,0015.92
2021-09-07 02:13:00,,0828.4,5.00,0.00,29.0,25.3,00.0,38.1,30.3,12.1,0001.9,0017.08,0025.18,0015.94
2021-09-07 02:14:00,,0828.3,5.00,0.00,28.9,25.3,00.0,38.0,30.2,12.7,0001.5,0017.13,0025.40,0016.00
2021-09-07 02:15:00,,0828.2,5.01,0.00,28.9,25.8,00.0,38.0,30.3,12.4,0001.4,0017.13,0026.35,0016.02
2021-09-07 02:16:00,,0828.3,5.01,0.00,28.8,26.3,00.0,38.0,30.5,11.8,0000.4,0017.15,0027.37,0016.09
2021-09-07 02:17:00,,0828.3,4.99,0.00,28.9,26.7,00.0,38.0,30.6,11.4,-000.0,0017.14,0027.19,0016.14
2021-09-07 02:18:00,,0828.3,5.00,0.00,28.9,27.2,00.0,38.0,30.7,11.7,0000.1,0017.26,0027.34,0016.24
2021-09-07 02:19:00,,0828.3,5.01,0.00,28.9,27.5,00.0,38.0,30.8,10.5,0000.2,0017.42,0027.83,0016.41
2021-09-07 02:20:00,,0828.3,5.00,0.00,29.0,27.8,00.0,38.0,30.9,10.9,0000.4,0017.64,0027.47,0016.58
2021-09-07 02:21:00,,0828.4,4.99,0.00,29.1,28.0,00.0,38.0,30.9,11.1,0000.5,0017.80,0026.87,0016.76
2021-09-07 02:22:00,,0828.4,5.00,0.00,29.1,28.2,00.0,38.0,31.0,10.7,0000.2,0017.97,0027.11,0016.92
2021-09-07 02:23:00,,0828.5,5.00,0.00,29.2,28.4,00.0,38.1,31.1,09.3,-000.1,0018.26,0027.81,0017.19
2021-09-07 02:24:00,,0828.5,5.01,0.00,29.2,28.5,00.0,38.1,31.2,09.1,0000.1,0018.48,0027.81,0017.43
2021-09-07 02:25:00,,0828.5,5.00,0.00,29.3,28.5,00.0,38.1,31.2,09.0,0000.5,0018.71,0027.85,0017.66
2021-09-07 02:26:00,,0828.4,4.99,0.00,29.2,26.8,00.0,38.1,30.8,09.2,0000.5,0018.99,0027.36,0017.91
2021-09-07 02:27:00,,0828.5,5.00,0.00,29.1,25.3,00.0,38.1,30.3,09.5,0001.1,0019.20,0026.26,0018.10
2021-09-07 02:28:00,,0828.9,5.01,0.00,29.0,25.5,00.0,38.1,30.3,09.6,0001.1,0019.45,0026.57,0018.29
2021-09-07 02:29:00,,0829.0,5.00,0.00,28.9,26.0,00.0,38.1,30.4,09.7,0000.8,0019.59,0026.68,0018.44
2021-09-07 02:30:00,,0828.9,4.99,0.00,28.9,26.5,00.0,38.0,30.5,10.4,0001.4,0019.65,0026.43,0018.51
2021-09-07 02:31:00,,0829.3,5.01,0.00,28.9,26.9,00.0,38.0,30.7,10.4,0001.3,0019.64,0026.76,0018.56
2021-09-07 02:32:00,,0828.8,5.00,0.00,29.0,27.3,00.0,38.0,30.8,10.4,0001.0,0019.64,0027.10,0018.58
2021-09-07 02:33:00,,0828.7,5.00,0.00,29.0,27.6,00.0,38.0,30.8,09.8,0001.3,0019.66,0027.05,0018.62
2021-09-07 02:34:00,,0829.0,5.00,0.00,29.1,27.9,00.0,38.1,30.9,10.0,0001.5,0019.60,0026.91,0018.58
2021-09-07 02:35:00,,0829.2,5.00,0.00,29.1,28.1,00.0,38.1,31.0,10.2,0001.4,0019.55,0027.23,0018.50
2021-09-07 02:36:00,,0829.2,5.02,0.00,29.2,28.3,00.0,38.1,31.1,10.1,0001.0,0019.48,0027.23,0018.44
2021-09-07 02:37:00,,0829.4,4.99,0.00,29.2,28.4,00.0,38.1,31.1,10.3,0001.3,0019.43,0027.20,0018.37
2021-09-07 02:38:00,,0828.8,5.00,0.00,29.3,28.6,00.0,38.2,31.2,10.2,0001.2,0019.41,0027.13,0018.35
2021-09-07 02:39:00,,0828.8,5.00,0.00,29.3,28.7,00.0,38.2,31.3,09.9,0001.3,0019.47,0027.21,0018.41
2021-09-07 02:40:00,,0829.1,5.00,0.00,29.4,27.8,00.0,38.2,31.0,09.7,0001.3,0019.46,0027.32,0018.44
2021-09-07 02:41:00,,0829.1,5.01,0.00,29.2,25.8,00.0,38.2,30.5,09.9,0000.9,0019.45,0027.65,0018.45
2021-09-07 02:42:00,,0828.9,4.99,0.00,29.1,25.4,00.0,38.2,30.3,10.1,0001.2,0019.48,0027.76,0018.48
2021-09-07 02:43:00,,0828.9,5.01,0.00,29.0,25.8,00.0,38.1,30.4,10.1,0001.6,0019.57,0027.40,0018.55
2021-09-07 02:44:00,,0828.9,5.00,0.00,28.9,26.3,00.0,38.1,30.5,10.2,0001.6,0019.68,0028.11,0018.62
2021-09-07 02:45:00,,0828.8,5.01,0.00,28.9,26.8,00.0,38.1,30.6,09.8,0001.8,0019.73,0028.03,0018.67
2021-09-07 02:46:00,,0828.9,4.99,0.00,29.0,27.2,00.0,38.1,30.7,09.6,0002.0,0019.87,0027.97,0018.81
2021-09-07 02:47:00,,0828.9,5.01,0.00,29.0,27.5,00.0,38.1,30.8,09.6,0002.3,0020.00,0028.51,0018.92
2021-09-07 02:48:00,,0828.9,5.00,0.00,29.1,27.8,00.0,38.1,30.9,09.7,0001.8,0020.11,0028.54,0019.04
2021-09-07 02:49:00,,0828.9,4.99,0.00,29.1,28.0,00.0,38.1,31.0,09.5,0001.3,0020.20,0028.70,0019.16
2021-09-07 02:50:00,,0828.9,5.00,0.00,29.2,28.2,00.0,38.1,31.1,09.3,0001.4,0020.23,0028.64,0019.23
2021-09-07 02:51:00,,0828.9,5.00,0.00,29.2,28.4,00.0,38.2,31.1,09.2,0001.1,0020.32,0028.92,0019.33
2021-09-07 02:52:00,,0828.9,5.00,0.00,29.3,28.5,00.0,38.2,31.2,09.3,0000.8,0020.45,0029.17,0019.43
2021-09-07 02:53:00,,0829.0,4.99,0.00,29.3,28.6,00.0,38.2,31.3,09.3,0000.4,0020.60,0029.01,0019.55
2021-09-07 02:54:00,,0829.0,4.99,0.00,29.4,28.7,00.0,38.3,31.3,09.4,0000.5,0020.70,0029.60,0019.67
2021-09-07 02:55:00,,0829.1,5.01,0.00,29.4,27.6,00.0,38.3,31.0,09.5,0000.5,0020.75,0030.22,0019.73
2021-09-07 02:56:00,,0829.0,4.99,0.00,29.2,25.6,00.0,38.2,30.5,09.4,0000.3,0020.85,0030.34,0019.82
2021-09-07 02:57:00,,0829.0,5.00,0.00,29.1,25.4,00.0,38.2,30.4,09.4,0000.3,0020.94,0030.21,0019.89
2021-09-07 02:58:00,,0829.0,5.01,0.00,29.0,25.8,00.0,38.2,30.5,09.4,0000.3,0020.95,0029.82,0019.92
2021-09-07 02:59:00,,0829.1,5.00,0.00,29.0,26.3,00.0,38.2,30.6,09.5,0000.6,0020.96,0029.90,0019.95
